Tracking 27112 objects as of 26-Mar-2023
HD Live streaming from Space Station
objects crossing your sky now

STARLINK-4202

Track STARLINK-4202 now!
10-day predictions
STARLINK-4202 is classified as:


NORAD ID: 52848
Int'l Code: 2022-062U
Perigee: 546.1 km
Apogee: 547.8 km
Inclination: 53.2 °
Period: 95.4 minutes
Semi major axis: 6917 km
RCS: Unknown
Launch date: June 17, 2022
Source: United States (US)
Launch site: AIR FORCE EASTERN TEST RANGE (AFETR)
Your satellite tracking list
Your tracking list is empty




NASA's NSSDC Master Catalog

Two Line Element Set (TLE):
1 52848U 22062U   23084.88608035  .00058869  00000-0  36881-2 0  9998
2 52848  53.2144 201.5460 0001243 122.7608 237.3504 15.08821653 43260
Source of the keplerian elements: AFSPC